Total_Precipitation_Accumulation
1.64 1.64 1.64 1.57 1.56 1.55 1.64 1.69 1.68 1.45 1.17 0.90 0.73 0.65 0.77 0.83 1.08 1.06 0.91 0.93 0.84 0.71 0.62 0.56 0.57 0.61 0.70 0.77 0.90 1.06 1.23 1.28 1.20 1.09 1.04 1.00 0.98 1.07
1.41 1.45 1.49 1.50 1.55 1.55 1.61 1.68 1.65 1.53 1.33 1.08 0.88 0.77 0.83 0.79 0.93 0.91 0.97 1.12 0.95 0.79 0.68 0.61 0.57 0.57 0.58 0.57 0.58 0.57 0.62 0.68 0.72 0.76 0.76 0.78 0.83 0.93
1.05 1.10 1.17 1.23 1.32 1.37 1.49 1.56 1.59 1.53 1.28 1.13 0.98 0.88 0.92 0.96 0.97 0.93 0.99 1.01 0.92 0.85 0.72 0.63 0.59 0.56 0.58 0.58 0.57 0.50 0.46 0.48 0.53 0.58 0.61 0.63 0.62 0.61
0.80 0.87 0.92 0.98 1.09 1.17 1.24 1.33 1.46 1.49 1.38 1.22 1.08 0.96 0.89 0.93 1.09 1.14 1.12 1.05 1.03 1.10 1.01 0.84 0.74 0.65 0.61 0.61 0.63 0.58 0.50 0.47 0.47 0.48 0.49 0.54 0.62 0.62
0.52 0.57 0.67 0.74 0.88 0.97 1.02 1.11 1.25 1.29 1.36 1.26 1.19 1.11 0.96 0.90 1.04 1.06 1.15 1.31 1.22 1.29 1.41 1.23 0.98 0.81 0.71 0.70 0.72 0.67 0.60 0.52 0.46 0.47 0.50 0.54 0.55 0.59
0.49 0.50 0.53 0.55 0.62 0.74 0.87 1.05 1.21 1.33 1.37 1.30 1.26 1.22 1.12 1.03 1.10 1.16 1.26 1.36 1.41 1.28 1.32 1.30 1.23 1.10 0.93 0.83 0.84 0.84 0.79 0.72 0.66 0.60 0.57 0.56 0.54 0.53
0.47 0.51 0.52 0.49 0.49 0.54 0.55 0.73 0.95 1.18 1.29 1.35 1.36 1.36 1.29 1.21 1.12 1.18 1.30 1.45 1.57 1.57 1.48 1.34 1.30 1.17 1.05 0.96 0.90 0.90 0.91 0.88 0.84 0.76 0.70 0.67 0.62 0.58
0.51 0.55 0.52 0.47 0.52 0.51 0.49 0.52 0.62 0.78 0.96 1.09 1.18 1.23 1.26 1.34 1.40 1.40 1.44 1.52 1.60 1.60 1.48 1.51 1.46 1.34 1.17 0.99 0.99 1.00 0.99 0.97 0.91 0.85 0.77 0.70 0.67 0.68
0.48 0.62 0.68 0.61 0.60 0.64 0.66 0.60 0.54 0.53 0.68 0.86 0.99 1.04 1.11 1.21 1.42 1.46 1.48 1.51 1.44 1.49 1.36 1.43 1.40 1.28 1.19 1.15 1.15 1.08 1.05 0.98 0.92 0.86 0.83 0.78 0.73 0.73
0.44 0.55 0.81 0.85 0.74 0.70 0.75 0.85 0.77 0.61 0.60 0.65 0.80 0.91 0.96 1.12 1.43 1.65 1.62 1.42 1.36 1.42 1.33 1.34 1.30 1.19 1.13 1.11 1.16 1.07 1.02 0.95 0.89 0.84 0.81 0.78 0.78 0.78
0.38 0.50 0.66 0.81 0.75 0.71 0.71 0.78 0.82 0.72 0.66 0.67 0.64 0.71 0.83 1.00 1.26 1.52 1.64 1.59 1.43 1.38 1.25 1.15 1.18 1.20 1.23 1.18 1.12 1.10 1.03 0.99 0.97 0.93 0.88 0.84 0.84 0.91
0.24 0.41 0.56 0.55 0.52 0.59 0.70 0.81 0.90 0.74 0.64 0.73 0.72 0.74 0.76 0.95 1.27 1.46 1.58 1.58 1.46 1.43 1.32 1.21 1.19 1.22 1.40 1.36 1.19 1.13 1.07 1.08 1.06 1.02 0.99 0.97 1.03 1.03
0.19 0.32 0.40 0.37 0.37 0.45 0.57 0.70 0.83 0.69 0.70 0.84 0.89 0.87 0.94 0.99 1.11 1.24 1.44 1.56 1.46 1.30 1.24 1.34 1.38 1.30 1.26 1.27 1.26 1.18 1.11 1.05 1.02 1.01 1.02 1.01 1.03 1.01
0.20 0.26 0.29 0.26 0.28 0.33 0.38 0.49 0.60 0.68 0.76 0.89 0.96 0.93 0.89 0.96 1.02 1.05 1.15 1.27 1.27 1.21 1.13 1.07 1.16 1.12 1.06 0.99 0.99 1.06 1.09 1.07 1.03 1.00 1.00 1.12 1.08 1.08
0.18 0.22 0.23 0.25 0.29 0.30 0.31 0.39 0.54 0.73 0.90 0.90 0.84 0.81 0.83 0.89 0.90 1.01 1.09 1.13 1.16 1.17 1.07 0.91 0.90 0.96 0.96 0.90 0.83 0.85 0.96 1.02 0.98 0.92 0.91 0.95 0.96 1.00
0.18 0.19 0.19 0.24 0.28 0.28 0.34 0.46 0.62 0.81 0.90 0.81 0.76 0.66 0.67 0.82 0.88 0.89 0.94 0.96 1.02 1.08 1.00 0.93 0.88 0.87 0.88 0.85 0.81 0.78 0.78 0.83 0.88 0.90 0.89 0.86 0.85 0.88
0.16 0.23 0.27 0.34 0.39 0.46 0.56 0.65 0.67 0.71 0.77 0.69 0.73 0.67 0.63 0.70 0.74 0.75 0.77 0.74 0.75 0.76 0.79 0.81 0.83 0.81 0.80 0.81 0.82 0.78 0.78 0.74 0.72 0.82 0.89 0.88 0.84 0.84
0.20 0.28 0.36 0.44 0.50 0.58 0.64 0.65 0.65 0.67 0.70 0.66 0.65 0.64 0.59 0.59 0.61 0.62 0.66 0.69 0.72 0.70 0.64 0.61 0.63 0.69 0.73 0.79 0.79 0.74 0.75 0.77 0.78 0.80 0.80 0.79 0.74 0.73
0.18 0.29 0.48 0.54 0.52 0.58 0.63 0.61 0.53 0.47 0.48 0.50 0.49 0.48 0.46 0.47 0.51 0.53 0.54 0.61 0.63 0.59 0.60 0.60 0.60 0.62 0.64 0.60 0.57 0.56 0.65 0.70 0.72 0.74 0.76 0.73 0.67 0.65
0.14 0.21 0.34 0.38 0.41 0.47 0.48 0.45 0.39 0.33 0.33 0.33 0.34 0.35 0.36 0.39 0.40 0.43 0.44 0.44 0.50 0.50 0.50 0.52 0.53 0.54 0.57 0.57 0.52 0.46 0.47 0.55 0.58 0.61 0.62 0.65 0.68 0.78
0.14 0.19 0.24 0.27 0.28 0.28 0.28 0.29 0.29 0.30 0.30 0.30 0.31 0.33 0.34 0.35 0.34 0.34 0.37 0.40 0.41 0.41 0.43 0.43 0.42 0.49 0.53 0.59 0.57 0.45 0.39 0.46 0.50 0.51 0.55 0.63 0.63 0.59
0.13 0.15 0.17 0.17 0.18 0.19 0.20 0.24 0.26 0.29 0.30 0.31 0.30 0.32 0.34 0.35 0.33 0.32 0.32 0.33 0.35 0.38 0.38 0.39 0.42 0.45 0.50 0.56 0.52 0.45 0.41 0.42 0.47 0.56 0.56 0.56 0.52 0.47
0.15 0.14 0.15 0.16 0.17 0.19 0.23 0.24 0.25 0.29 0.31 0.31 0.33 0.34 0.35 0.36 0.36 0.35 0.35 0.34 0.35 0.38 0.40 0.41 0.43 0.46 0.47 0.48 0.47 0.44 0.42 0.43 0.45 0.48 0.48 0.50 0.47 0.43